CAPE
0 0 0 0 0 0 0 0 0 0 0 0 0 0 0 0 0 0 0 0 0 0 0 8 0 0 11 100 81 226 490 746
0 0 0 0 0 0 0 0 0 0 0 0 0 0 0 0 0 0 0 0 0 0 0 0 0 0 0 0 0 6 34 369
0 0 0 0 0 0 0 0 0 0 0 0 0 0 0 0 0 0 0 0 0 0 0 0 0 0 0 1 0 0 0 61
0 0 0 0 0 0 0 0 0 0 0 0 0 0 0 0 0 0 0 0 0 0 0 0 0 0 0 0 0 4 1 62
0 0 0 0 0 0 0 0 0 0 0 0 0 0 0 0 0 0 0 0 0 0 0 0 0 0 0 0 0 0 1 8
0 0 0 0 0 0 0 0 0 0 0 0 0 0 0 1 0 0 0 0 0 0 0 0 0 0 0 0 0 0 0 0
0 0 0 0 0 0 0 0 0 0 0 0 0 0 2 2 1 0 2 1 1 0 0 0 1 1 2 0 0 0 0 1
0 0 0 0 0 0 0 0 0 0 0 0 0 0 0 0 0 0 1 1 0 1 1 0 0 1 0 1 1 1 0 0
0 0 0 0 0 0 0 0 0 0 0 0 0 0 0 0 0 0 0 1 1 1 2 2 2 1 2 1 2 0 1 2
0 0 0 0 0 0 0 0 1 0 0 0 0 0 0 0 0 2 2 1 2 1 1 2 2 2 3 2 2 2 1 2
0 0 0 0 0 0 1 0 0 0 1 0 1 1 2 1 3 1 1 1 2 1 1 2 2 2 2 2 2 2 3 2
0 0 0 0 0 0 0 0 0 0 1 0 1 0 0 1 1 0 1 2 1 2 2 2 2 2 2 2 3 3 3 3
0 0 0 1 0 0 0 0 0 0 0 0 0 0 2 0 0 1 1 1 0 1 1 3 3 3 1 1 3 4 3 3
0 0 1 0 2 1 1 1 1 0 0 0 0 0 1 0 0 0 0 0 1 1 1 1 1 1 4 3 2 3 5 4
0 0 2 1 2 2 2 3 2 1 0 1 3 2 1 1 0 0 0 1 1 1 1 1 0 2 1 2 3 3 3 4
2 2 0 0 2 0 0 0 0 0 0 1 1 1 1 0 0 0 0 0 0 1 0 0 0 1 1 2 2 3 5 3
0 0 0 1 0 0 0 0 0 0 0 0 0 0 1 0 0 0 0 0 0 0 0 0 0 1 2 1 2 2 3 5
0 0 0 0 0 0 0 0 0 0 0 0 0 0 0 0 0 0 0 0 0 0 0 0 0 0 2 1 1 1 1 2
0 0 0 0 0 0 0 0 0 0 0 0 0 0 0 0 0 0 0 0 0 0 1 0 0 0 2 3 0 0 0 0
CIN
-0 -0 -0 -0 -0 -0 -0 -0 -0 -0 -0 -0 -0 -0 -0 -0 -0 -0 -0 -0 -0 -0 -0 -145 -0 -32 -69 -123 -159 -78 -6 -17
-0 -0 -0 -0 -0 -0 -0 -0 -0 -0 -0 -0 -0 -0 -0 -0 -0 -0 -0 -0 -0 -0 -0 -0 -0 -0 -0 -0 -1 -153 -113 -16
-0 -0 -0 -0 -0 -0 -0 -0 -0 -0 -0 -0 -0 -0 -0 -0 -0 -0 -0 -0 -0 -0 -0 -0 -0 -0 -0 -0 -5 -0 -0 -82
-0 -0 -0 -0 -0 -0 -0 -0 -0 -0 -0 -0 -0 -0 -0 -0 -0 -0 -0 -0 -0 -0 -0 -0 -0 -0 -0 -0 -0 -3 -15 -71
-0 -0 -0 -0 -0 -0 -0 -0 -0 -0 -0 -0 -0 -0 -0 -0 -0 -0 -0 -0 -0 -0 -0 -0 -0 -0 -0 -0 -0 -0 -1 -22
-0 -0 -0 -0 -0 -0 -0 -0 -0 -0 -0 -0 -0 -0 -0 -0 -0 -0 -0 -0 -0 -0 -0 -0 -0 -0 -0 -0 -0 -0 -0 -0
-0 -0 -0 -0 -0 -0 -0 -0 -0 -0 -0 -0 -0 -0 -0 -0 -0 -0 -0 -0 -0 -0 -0 -0 -0 -0 -0 -0 -0 -0 -0 -0
-0 -0 -0 -0 -0 -0 -0 -0 -0 -0 -0 -0 -0 -0 -0 -0 -0 -0 -0 -0 -0 -0 -0 -0 -0 -0 -0 -0 -0 -0 -0 -0
-0 -0 -0 -0 -0 -0 -0 -0 -0 -0 -0 -0 -0 -0 -0 -0 -0 -0 -0 -0 -0 -0 -0 -0 -0 -0 -0 -0 -0 -0 -0 -0
-0 -0 -0 -0 -0 -0 -0 -0 -0 -0 -0 -0 -0 -0 -0 -0 -0 -0 -0 -0 -0 -0 -0 -0 -0 -0 -0 -0 -0 -0 -0 -0
-0 -0 -0 -0 -0 -0 -0 -0 -0 -1 -0 -0 -0 -0 -0 -0 -0 -0 -0 -0 -0 -0 -0 -0 -0 -0 -0 -0 -0 -0 -0 -0
-0 -0 -0 -0 -0 -0 -0 -0 -0 -0 -0 -0 -0 -0 -0 -0 -0 -0 -0 -0 -0 -0 -0 -0 -0 -0 -0 -0 -0 -0 -0 -0
-0 -0 -0 -0 -0 -0 -0 -0 -0 -0 -0 -0 -0 -0 -0 -0 -0 -0 -0 -0 -0 -0 -0 -0 -0 -0 -0 -0 -0 -0 -0 -0
-0 -0 -0 -0 -0 -0 -0 -0 -0 -0 -0 -0 -0 -0 -0 -0 -0 -0 -0 -0 -0 -0 -0 -0 -0 -0 -0 -0 -0 -0 -0 -0
-0 -0 -0 -0 -0 -0 -0 -0 -0 -0 -0 -0 -0 -0 -0 -0 -0 -0 -0 -0 -0 -0 -0 -0 -0 -0 -0 -0 -0 -0 -0 -0
-0 -0 -0 -0 -0 -0 -0 -0 -0 -0 -0 -0 -0 -0 -0 -0 -0 -0 -0 -0 -0 -0 -0 -0 -0 -0 -0 -0 -0 -0 -0 -0
-0 -0 -0 -0 -0 -0 -0 -0 -0 -0 -0 -0 -0 -0 -0 -0 -0 -0 -0 -0 -0 -0 -0 -0 -0 -0 -0 -0 -0 -0 -0 -0
-0 -0 -0 -0 -0 -0 -0 -0 -0 -0 -0 -0 -0 -0 -0 -0 -0 -0 -0 -0 -0 -0 -0 -0 -0 -0 -0 -0 -0 -0 -0 -0
-0 -0 -0 -0 -0 -0 -0 -0 -0 -0 -0 -0 -0 -0 -0 -0 -0 -0 -0 -0 -0 -0 -0 -0 -0 -0 -0 -0 -0 -0 -0 -0
Wind_Speed
27 26 25 25 25 25 26 26 26 25 24 22 20 21 21 21 23 25 26 29 32 33 31 30 31 32 32 30 30 27 28 35
25 25 25 26 27 27 28 29 29 28 27 27 24 26 26 25 26 27 29 31 33 34 33 32 32 32 33 37 37 38 37 32
26 26 26 26 27 28 29 29 29 29 28 27 26 29 26 28 30 31 33 34 34 34 34 34 34 35 34 34 33 37 30 31
26 26 27 27 28 29 29 29 30 30 31 30 31 29 31 31 36 36 37 36 35 34 34 35 35 34 35 35 36 32 31 30
25 27 28 28 28 29 30 30 31 31 32 31 31 33 36 36 39 38 38 37 36 36 36 35 36 36 37 36 33 32 30 34
25 25 26 28 29 30 31 31 31 32 32 32 34 35 35 38 38 40 39 39 38 37 36 36 37 37 38 39 38 37 35 39
24 26 28 28 30 31 32 33 32 33 33 33 35 37 39 41 41 41 40 40 38 37 38 38 38 37 37 38 38 38 38 38
25 25 27 31 34 34 33 33 34 35 36 36 36 38 38 40 41 42 44 42 39 39 40 40 40 38 39 40 40 40 39 41
24 25 26 29 31 32 33 35 38 38 39 39 38 38 39 40 41 43 44 44 42 42 41 40 41 40 39 40 42 43 42 43
21 24 27 30 31 33 35 35 36 37 38 38 37 37 40 40 41 41 42 44 42 42 42 43 41 40 39 39 42 44 43 43
23 26 28 30 32 34 35 36 36 37 37 36 36 35 37 39 40 41 40 40 40 40 41 41 42 40 40 39 40 42 45 44
23 26 28 30 32 34 36 37 37 37 37 37 37 37 37 37 37 39 39 39 38 39 39 40 40 41 41 41 40 41 44 45
22 25 28 30 32 34 36 36 36 36 36 37 37 36 35 36 36 37 37 37 37 37 38 38 39 40 41 42 43 43 44 45
23 25 27 29 32 33 34 34 33 34 35 35 34 34 35 35 35 36 36 36 36 37 37 38 39 39 39 41 44 45 46 46
23 26 28 30 31 32 33 32 32 32 33 34 33 34 34 34 34 34 35 36 37 37 37 36 37 36 38 39 41 41 43 42
23 25 27 28 29 31 31 30 30 31 31 31 32 32 33 33 34 34 35 36 37 36 36 35 35 34 35 36 33 33 32 36
22 24 26 27 29 30 30 29 28 28 28 29 30 31 32 34 35 35 35 35 38 38 37 35 35 33 33 32 27 25 24 23
23 24 24 25 26 26 27 26 26 26 26 27 29 30 31 32 33 34 34 35 38 39 41 40 36 35 33 29 26 23 22 21
20 20 21 22 22 23 23 24 23 24 24 25 26 27 28 30 32 34 34 36 36 38 42 40 36 35 35 31 26 25 22 23
Wind_Direction
326 327 326 325 325 325 324 327 327 325 322 319 321 323 319 315 314 313 312 309 307 305 300 293 289 285 283 278 280 287 293 281
332 329 329 329 328 326 325 322 324 323 319 313 309 311 311 313 312 312 312 309 305 304 302 300 297 291 287 283 277 277 279 278
333 334 332 332 330 327 325 325 324 325 322 318 313 307 307 307 310 309 309 309 308 303 300 297 296 293 293 289 286 282 277 268
332 334 335 333 331 329 327 325 322 322 320 316 311 305 306 303 304 305 306 307 306 305 301 298 296 294 291 291 289 289 271 266
334 331 332 335 333 327 325 323 321 321 319 318 314 308 304 303 302 305 305 307 305 305 301 299 296 294 290 289 291 288 278 263
339 336 334 331 333 329 326 325 325 323 321 319 311 311 311 306 304 304 305 305 304 303 301 299 296 294 290 286 285 283 279 270
340 334 328 327 329 330 329 323 323 323 323 321 315 312 306 302 301 303 306 308 309 306 301 298 297 294 290 287 284 281 278 276
335 336 335 326 324 322 324 325 323 323 324 321 315 313 309 304 304 303 303 306 308 308 305 301 297 295 291 285 283 281 279 276
339 341 337 328 334 336 333 325 316 319 319 317 315 315 310 308 307 301 301 304 305 304 304 302 299 295 292 287 282 280 279 277
343 340 335 329 332 333 337 333 329 326 326 321 317 322 309 305 308 309 308 306 308 307 305 302 299 296 292 288 283 279 278 277
332 334 337 333 333 330 330 332 330 325 330 332 327 329 318 310 310 312 315 316 316 311 307 302 297 294 293 289 285 281 277 276
331 331 333 336 336 335 335 334 335 329 334 326 322 323 320 317 322 321 320 317 320 315 311 305 301 295 292 290 287 284 279 275
332 333 334 336 337 335 335 337 338 338 335 331 328 327 330 325 328 329 329 327 326 321 316 312 307 301 294 289 287 284 280 277
329 334 335 336 336 336 335 335 336 340 341 339 336 337 337 337 334 335 335 334 332 328 324 319 314 308 302 295 289 283 278 275
328 331 333 334 335 335 334 334 337 341 345 346 344 342 343 344 345 344 343 343 341 338 335 328 322 316 309 302 295 288 280 276
328 331 333 333 334 336 335 335 337 340 340 344 345 354 357 356 357 358 0 360 357 350 343 340 335 330 323 317 308 300 297 281
331 332 332 331 332 332 333 336 339 342 345 350 353 1 7 9 11 12 10 4 7 3 357 351 348 343 337 335 329 322 317 310
326 329 333 334 335 337 339 342 348 352 356 0 3 8 14 15 14 9 6 7 12 9 9 6 1 357 352 346 346 344 342 339
330 335 337 340 343 345 348 350 353 357 2 4 6 7 9 11 12 11 9 11 10 11 14 12 9 7 5 1 358 360 1 359